This is the latest recevied weather packets stored in our database for station/object KD4EG. If no packets are shown the sender has not sent any weather packets the latest 10 day(s).
| Time | Temp. | Humidity | Pressure | Rain* | Wind** | Luminosity | Snow |
|---|---|---|---|---|---|---|---|
| 1777747069 | 16.11° C | 36% | 1014.5 hPa | 0 mm | - | 209 W/m² | - |
| 1777746765 | 16.67° C | 37% | 1014.3 hPa | 0 mm | - | 758 W/m² | - |
| 1777746460 | 16.11° C | 36% | 1014.4 hPa | 0 mm | - | 707 W/m² | - |
| 1777746155 | 15° C | 37% | 1014.6 hPa | 0 mm | - | 480 W/m² | - |
| 1777745852 | 15° C | 37% | 1014.5 hPa | 0 mm | - | 514 W/m² | - |
| 1777745552 | 15.56° C | 39% | 1014.6 hPa | 0 mm | - | 527 W/m² | - |
| 1777745248 | 15.56° C | 37% | 1014.8 hPa | 0 mm | - | 645 W/m² | - |
| 1777744946 | 16.67° C | 38% | 1014.8 hPa | 0 mm | - | 614 W/m² | - |
| 1777744646 | 16.11° C | 39% | 1014.7 hPa | 0 mm | - | 776 W/m² | - |
| 1777744341 | 14.44° C | 42% | 1015.1 hPa | 0 mm | - | 760 W/m² | - |
| 1777744038 | 15.56° C | 38% | 1015.1 hPa | 0 mm | - | 554 W/m² | - |
| 1777743735 | 15° C | 41% | 1015.2 hPa | 0 mm | - | 779 W/m² | - |
| 1777743432 | 15° C | 39% | 1015.2 hPa | 0 mm | - | 601 W/m² | - |
| 1777743129 | 15° C | 41% | 1015.2 hPa | 0 mm | - | 586 W/m² | - |
| 1777742828 | 15° C | 40% | 1015.3 hPa | 0 mm | - | 428 W/m² | - |
| 1777742523 | 15° C | 41% | 1015.5 hPa | 0 mm | - | 490 W/m² | - |
| 1777742219 | 15° C | 40% | 1015.3 hPa | 0 mm | - | 539 W/m² | - |
| 1777741916 | 15° C | 42% | 1015.3 hPa | 0 mm | - | 685 W/m² | - |
| 1777741613 | 15° C | 40% | 1015.5 hPa | 0 mm | - | 902 W/m² | - |
| 1777741310 | 15° C | 39% | 1015.5 hPa | 0 mm | - | 568 W/m² | - |
| 1777741006 | 16.11° C | 40% | 1015.4 hPa | 0 mm | - | 716 W/m² | - |
| 1777740704 | 15.56° C | 43% | 1015.7 hPa | 0 mm | - | 481 W/m² | - |
| 1777740399 | 14.44° C | 41% | 1015.7 hPa | 0 mm | - | 572 W/m² | - |
| 1777740097 | 15° C | 40% | 1015.8 hPa | 0 mm | - | 537 W/m² | - |
| 1777739792 | 15° C | 40% | 1015.9 hPa | 0 mm | - | 547 W/m² | - |
* Rain latest hour (hover to see other rain measurements)
** Current wind speed in m/s (hover to see current wind gust speed)